When you browse on this site, cookies collect data to enhance your experience and personalize the content and advertising you see.
Visit our Privacy Policy to learn more. By continuing to use the site, you agree to this use of cookies and data.
  • In Austria
  • List of Countries
  • For 7 days
  • Water Temperature
  • Satellite Maps
  • Weather Map
  • News
  • Weather Widgets
  • user-avatar
    Login

    Hourly Weather Harrisburg

    Today, 18 December, Tuesday

    Time Temperature Precipitation Wind Pressure Humidity
    00:00 -1°C° 0 mm 5 mps 751 mmHg 69%
    01:00 -1°C° 0 mm 4 mps 751 mmHg 71%
    02:00 -1°C° 0 mm 4 mps 752 mmHg 69%
    03:00 -1°C° 0 mm 4 mps 752 mmHg 67%
    04:00 -2°C° 0 mm 4 mps 753 mmHg 65%
    05:00 -2°C° 0 mm 4 mps 753 mmHg 67%
    06:00 -3°C° 0 mm 4 mps 754 mmHg 68%
    07:00 -2°C° 0 mm 2 mps 754 mmHg 73%
    08:00 -1°C° 0 mm 3 mps 754 mmHg 66%
    09:00 -1°C° 0 mm 4 mps 755 mmHg 60%
    10:00 -1°C° 0 mm 5 mps 755 mmHg 53%
    11:00 0°C° 0 mm 5 mps 755 mmHg 51%
    12:00 +1°C° 0 mm 5 mps 755 mmHg 48%
    13:00 +1°C° 0 mm 4 mps 755 mmHg 45%
    14:00 +1°C° 0 mm 4 mps 756 mmHg 48%
    15:00 +2°C° 0 mm 3 mps 756 mmHg 51%
    16:00 +2°C° 0 mm 2 mps 756 mmHg 54%
    17:00 +1°C° 0 mm 2 mps 756 mmHg 57%
    18:00 -1°C° 0 mm 2 mps 756 mmHg 61%
    19:00 0°C° 0 mm 1 mps 757 mmHg 65%
    20:00 0°C° 0 mm 1 mps 757 mmHg 66%
    21:00 0°C° 0 mm 1 mps 757 mmHg 67%
    22:00 -1°C° 0 mm 1 mps 757 mmHg 68%
    23:00 -1°C° 0 mm 1 mps 757 mmHg 68%

    Tomorrow, 19 December, Wednesday

    Time Temperature Precipitation Wind Pressure Humidity
    00:00 -1°C° 0 mm 1 mps 757 mmHg 68%
    01:00 -1°C° 0 mm 1 mps 757 mmHg 69%
    02:00 -1°C° 0 mm 1 mps 757 mmHg 69%
    03:00 -1°C° 0 mm 1 mps 757 mmHg 69%
    04:00 -1°C° 0 mm 1 mps 757 mmHg 69%
    05:00 -1°C° 0 mm 1 mps 757 mmHg 70%
    06:00 -1°C° 0 mm 1 mps 756 mmHg 70%
    07:00 -1°C° 0 mm 1 mps 756 mmHg 70%
    08:00 +1°C° 0 mm 1 mps 756 mmHg 65%
    09:00 +2°C° 0 mm 1 mps 756 mmHg 61%
    10:00 +3°C° 0 mm 2 mps 756 mmHg 56%
    11:00 +4°C° 0 mm 2 mps 755 mmHg 56%
    12:00 +5°C° 0 mm 2 mps 755 mmHg 55%
    13:00 +7°C° 0 mm 2 mps 754 mmHg 55%
    14:00 +6°C° 0 mm 2 mps 754 mmHg 61%
    15:00 +6°C° 0 mm 2 mps 753 mmHg 67%
    16:00 +5°C° 0 mm 2 mps 753 mmHg 73%
    17:00 +5°C° 0 mm 1 mps 753 mmHg 78%
    18:00 +4°C° 0 mm 1 mps 754 mmHg 83%
    19:00 +2°C° 0 mm 1 mps 754 mmHg 89%
    20:00 +2°C° 0 mm 1 mps 754 mmHg 89%
    21:00 +2°C° 0 mm 1 mps 754 mmHg 90%
    22:00 +2°C° 0 mm 1 mps 754 mmHg 91%
    23:00 +2°C° 0 mm 1 mps 754 mmHg 91%

    Day after tomorrow, 20 December, Thursday

    Time Temperature Precipitation Wind Pressure Humidity
    00:00 +2°C° 0 mm 1 mps 754 mmHg 92%
    01:00 +2°C° 0 mm 1 mps 754 mmHg 92%
    02:00 +2°C° 0 mm 1 mps 753 mmHg 93%
    03:00 +1°C° 0 mm 1 mps 753 mmHg 93%
    04:00 0°C° 0 mm 0 mps 753 mmHg 94%
    05:00 +1°C° 0 mm 1 mps 753 mmHg 94%
    06:00 +1°C° 0 mm 1 mps 753 mmHg 94%
    07:00 +1°C° 0 mm 1 mps 753 mmHg 95%
    08:00 +3°C° 0 mm 1 mps 753 mmHg 92%
    09:00 +4°C° 0 mm 1 mps 754 mmHg 88%
    10:00 +5°C° 0 mm 1 mps 754 mmHg 85%
    11:00 +6°C° 0 mm 1 mps 753 mmHg 85%
    12:00 +7°C° 0 mm 1 mps 752 mmHg 86%
    13:00 +6°C° 0 mm 2 mps 751 mmHg 86%
    14:00 +6°C° 0.2 mm 2 mps 751 mmHg 89%
    15:00 +5°C° 0.2 mm 2 mps 750 mmHg 93%
    16:00 +5°C° 0.2 mm 2 mps 750 mmHg 97%
    17:00 +5°C° 1 mm 2 mps 750 mmHg 97%
    18:00 +5°C° 1 mm 2 mps 749 mmHg 97%
    19:00 +6°C° 1 mm 2 mps 749 mmHg 98%
    20:00 +5°C° 2.5 mm 3 mps 748 mmHg 97%
    21:00 +7°C° 2.5 mm 3 mps 747 mmHg 97%
    22:00 +7°C° 2.5 mm 3 mps 747 mmHg 97%
    23:00 +7°C° 1.6 mm 4 mps 745 mmHg 97%

    21 December, Friday

    Time Temperature Precipitation Wind Pressure Humidity
    00:00 +8°C° 1.6 mm 4 mps 743 mmHg 96%
    01:00 +9°C° 1.6 mm 5 mps 742 mmHg 96%
    02:00 +9°C° 1.9 mm 5 mps 741 mmHg 96%
    03:00 +10°C° 1.9 mm 4 mps 739 mmHg 96%
    04:00 +10°C° 1.9 mm 4 mps 738 mmHg 95%
    05:00 +11°C° 0.5 mm 3 mps 737 mmHg 96%
    06:00 +11°C° 0.5 mm 3 mps 737 mmHg 97%
    07:00 +12°C° 0.5 mm 2 mps 736 mmHg 98%
    08:00 +12°C° 0.2 mm 2 mps 736 mmHg 97%
    09:00 +13°C° 0.2 mm 2 mps 736 mmHg 97%
    10:00 +13°C° 0.2 mm 2 mps 736 mmHg 97%
    11:00 +13°C° 0.3 mm 3 mps 735 mmHg 97%
    12:00 +13°C° 0.3 mm 3 mps 734 mmHg 97%
    13:00 +14°C° 0.3 mm 3 mps 734 mmHg 97%
    14:00 +14°C° 1.2 mm 3 mps 733 mmHg 96%
    15:00 +14°C° 1.2 mm 3 mps 733 mmHg 95%
    16:00 +14°C° 1.2 mm 3 mps 733 mmHg 95%
    17:00 +13°C° 0.8 mm 3 mps 733 mmHg 94%
    18:00 +12°C° 0.8 mm 3 mps 733 mmHg 94%
    19:00 +11°C° 0.8 mm 3 mps 733 mmHg 93%
    20:00 +11°C° 0 mm 3 mps 733 mmHg 94%
    21:00 +10°C° 0 mm 3 mps 733 mmHg 94%
    22:00 +10°C° 0 mm 3 mps 734 mmHg 94%
    23:00 +9°C° 0 mm 3 mps 734 mmHg 93%

    22 December, Saturday

    Time Temperature Precipitation Wind Pressure Humidity
    00:00 +8°C° 0 mm 3 mps 734 mmHg 92%
    01:00 +8°C° 0 mm 3 mps 734 mmHg 91%
    02:00 +6°C° 0 mm 4 mps 734 mmHg 89%
    03:00 +6°C° 0 mm 5 mps 735 mmHg 86%
    04:00 +4°C° 0 mm 6 mps 735 mmHg 84%
    05:00 +4°C° 0.1 mm 6 mps 736 mmHg 82%
    06:00 +4°C° 0.1 mm 7 mps 737 mmHg 81%
    07:00 +3°C° 0.1 mm 7 mps 738 mmHg 79%
    08:00 +4°C° 0 mm 7 mps 739 mmHg 77%
    09:00 +4°C° 0 mm 8 mps 740 mmHg 75%
    10:00 +4°C° 0 mm 8 mps 741 mmHg 73%
    11:00 +4°C° 0 mm 8 mps 742 mmHg 71%
    12:00 +4°C° 0 mm 8 mps 743 mmHg 70%
    13:00 +4°C° 0 mm 8 mps 743 mmHg 69%
    14:00 +4°C° 0 mm 7 mps 744 mmHg 68%
    15:00 +3°C° 0 mm 7 mps 745 mmHg 68%
    16:00 +3°C° 0 mm 6 mps 746 mmHg 67%
    17:00 +2°C° 0 mm 6 mps 747 mmHg 69%
    18:00 +1°C° 0 mm 5 mps 748 mmHg 72%
    19:00 0°C° 0 mm 5 mps 749 mmHg 74%
    20:00 0°C° 0 mm 5 mps 749 mmHg 75%
    21:00 -1°C° 0 mm 5 mps 750 mmHg 76%
    22:00 -1°C° 0 mm 4 mps 750 mmHg 77%
    23:00 -1°C° 0 mm 4 mps 750 mmHg 78%

    23 December, Sunday

    Time Temperature Precipitation Wind Pressure Humidity
    00:00 -1°C° 0 mm 4 mps 751 mmHg 79%
    01:00 0°C° 0 mm 3 mps 751 mmHg 79%
    02:00 0°C° 0 mm 3 mps 751 mmHg 80%
    03:00 0°C° 0 mm 3 mps 751 mmHg 80%
    04:00 0°C° 0 mm 3 mps 751 mmHg 80%
    05:00 +1°C° 0 mm 3 mps 752 mmHg 80%
    06:00 +1°C° 0 mm 3 mps 752 mmHg 80%
    07:00 +2°C° 0 mm 3 mps 752 mmHg 80%
    08:00 +1°C° 0 mm 4 mps 753 mmHg 74%
    09:00 +2°C° 0 mm 5 mps 753 mmHg 69%
    10:00 +3°C° 0 mm 5 mps 753 mmHg 64%
    11:00 +3°C° 0 mm 5 mps 753 mmHg 62%
    12:00 +5°C° 0 mm 5 mps 753 mmHg 60%
    13:00 +5°C° 0 mm 5 mps 753 mmHg 57%
    14:00 +5°C° 0 mm 4 mps 753 mmHg 60%
    15:00 +4°C° 0 mm 4 mps 753 mmHg 63%
    16:00 +4°C° 0 mm 3 mps 753 mmHg 66%
    17:00 +3°C° 0 mm 3 mps 753 mmHg 70%
    18:00 +2°C° 0 mm 2 mps 754 mmHg 73%
    19:00 +1°C° 0 mm 2 mps 754 mmHg 77%
    20:00 +1°C° 0 mm 2 mps 755 mmHg 78%
    21:00 +1°C° 0 mm 2 mps 755 mmHg 79%
    22:00 +1°C° 0 mm 2 mps 755 mmHg 79%
    23:00 0°C° 0 mm 3 mps 755 mmHg 78%
    Show more